Regional Weather Roundup
Issued by NWS

Home | Current Version | Previous Version | Text Only | Print | Product List | Glossary Off
Versions: 1 2 3 4 5 6 7 8 9 10 11 12 13 14 15 16 17 18 19 20 21 22 23 24 25 26 27 28 29 30 31 32 33 34 35 36 37 38 39 40 41 42 43 44 45 46 47 48 49 50

000
ASUS44 KMEG 250900
RWRTN
TENNESSEE HOURLY STATE WEATHER ROUNDUP
NATIONAL WEATHER SERVICE MEMPHIS TN
400 AM CDT WED MAY 25 2016

TNZ002-004-019-021-049-052-054-088>092-251000-
WEST TENNESSEE

CITY           SKY/WX    TMP DP  RH WIND       PRES   REMARKS
MEMPHIS INTL   CLOUDY    67  63  87 SE6       30.02S
NWS MEMPHIS      N/A     64 N/A N/A MISG        N/A
JACKSON        CLOUDY    66  64  93 S3        30.05R
DYERSBURG      MOCLDY    66  64  94 CALM      30.04S
UNION CITY     MOCLDY    66  66 100 S6        30.04R
PARIS          MOCLDY    64  63  94 CALM      30.05S
LEXINGTON      PTCLDY    64  61  88 CALM      30.05S
$$

TNZ008-025-027-028-033-062-065-066-251000-
NORTH MIDDLE TENNESSEE

CITY           SKY/WX    TMP DP  RH WIND       PRES   REMARKS
NASHVILLE      CLOUDY    68  57  68 S5        30.08R
CLARKSVILLE    CLOUDY    68  61  78 CALM      30.05S
COOKEVILLE     CLEAR     55  54  94 CALM      30.11S
CROSSVILLE     PTCLDY    66  52  60 CALM      30.17S
$$

TNZ061-075-076-078-094-096-097-251000-
SOUTH MIDDLE TENNESSEE

CITY           SKY/WX    TMP DP  RH WIND       PRES   REMARKS
TULLAHOMA      CLEAR     57  57 100 CALM      30.12S
WINCHESTER     CLEAR     61  54  77 CALM      30.12S
MCMINNVILLE    CLEAR     57  57 100 CALM      30.11F
COLUMBIA       CLOUDY    70  70 100 S3        30.07R
SHELBYVILLE    CLEAR     68  57  68 S5        30.11R
$$

TNZ017-018-042-046-047-251000-
NORTHEAST TENNESSEE

CITY           SKY/WX    TMP DP  RH WIND       PRES   REMARKS
TRI CITIES     PTCLDY    52  48  86 CALM      30.22R
$$

TNZ012-013-036-069-073-074-251000-
CENTRAL EAST TENNESSEE

CITY           SKY/WX    TMP DP  RH WIND       PRES   REMARKS
KNOXVILLE      MOCLDY    60  53  77 NE5       30.15S
OAK RIDGE      CLEAR     59  56  89 CALM      30.18R
GATLINBURG     PTCLDY    55  50  82 CALM      30.17R
$$

TNZ083-085-099-251000-
SOUTHEAST TENNESSEE

CITY           SKY/WX    TMP DP  RH WIND       PRES   REMARKS
CHATTANOOGA    CLEAR     61  57  87 CALM      30.14S
$$

SKY/WX REPORTED AS FAIR MEANS FEW OR NO CLOUDS BELOW
12 THOUSAND FEET.





USA.gov is the U.S. government's official web portal to all federal, state and local government web resources and services.